Temperature
3 3 3 3 4 4 4 4 4 4 5 5 5 5 5 5 5 5 5 5 5 5 5 5 5 5 5 5 5 5 5 5 4 5 5 5 5 5 5 5 5 5 5
2 3 3 3 3 3 3 3 3 4 4 4 4 4 4 5 5 5 5 5 5 5 5 5 5 5 5 5 4 5 4 4 4 4 4 4 4 4 4 4 5 4 4
2 2 2 2 2 2 2 3 3 3 3 4 4 4 4 4 4 4 4 4 4 4 4 4 4 4 4 4 4 4 4 4 4 4 4 4 4 4 4 4 4 4 4
2 2 2 2 1 2 2 2 2 2 3 3 3 3 3 3 3 3 3 3 3 3 3 3 3 3 4 4 3 3 4 3 3 3 3 4 3 3 3 3 3 3 3
1 1 1 1 1 1 1 1 1 2 2 2 2 2 2 2 2 3 2 3 2 2 3 3 3 3 3 3 3 3 3 3 3 3 3 3 3 3 3 3 3 3 3
1 1 1 1 1 1 1 1 1 1 1 1 1 1 1 2 2 2 2 2 2 2 2 2 2 3 3 3 3 3 3 3 3 3 3 3 3 3 3 2 2 2 2
0 0 -0 -0 -0 0 0 0 0 0 0 0 1 1 1 1 1 1 1 1 1 1 2 2 2 2 2 2 2 2 2 2 2 2 2 2 2 2 2 2 2 1 1
-1 -1 -1 -1 -1 -1 -1 -1 -0 -0 -0 -0 0 0 0 1 1 1 1 1 1 1 1 1 1 2 2 2 2 2 2 2 2 2 2 2 2 2 1 1 1 1 1
-1 -1 -1 -1 -1 -1 -1 -1 -1 -1 -1 -1 -1 -0 -0 0 1 1 1 0 1 1 1 1 1 1 1 1 1 1 1 1 1 1 1 1 1 1 1 1 1 0 0
-2 -2 -2 -2 -2 -2 -2 -2 -2 -2 -1 -1 -1 -1 -1 -0 -0 -0 0 0 0 0 0 1 1 1 1 1 1 1 1 1 1 1 1 1 1 1 1 0 0 0 -0
-2 -2 -2 -2 -2 -2 -2 -2 -2 -2 -2 -2 -2 -1 -1 -1 -1 -1 -0 -1 -1 -0 -0 -0 0 0 0 0 0 0 0 0 0 0 0 0 0 0 0 -0 -0 -0 -1
-2 -2 -2 -2 -2 -2 -2 -2 -2 -3 -2 -2 -2 -2 -1 -1 -1 -1 -1 -1 -1 -1 -1 -1 -1 -1 -1 -1 -1 -1 -1 -0 -0 -1 -0 -0 -0 -0 -1 -1 -1 -1 -1
-3 -3 -3 -3 -3 -3 -3 -3 -3 -3 -3 -3 -3 -3 -2 -2 -2 -2 -2 -2 -2 -2 -1 -1 -1 -1 -1 -1 -1 -1 -1 -1 -1 -1 -1 -1 -1 -1 -1 -1 -1 -1 -1
-3 -3 -3 -3 -3 -3 -3 -3 -3 -3 -3 -3 -3 -3 -3 -3 -2 -2 -2 -2 -2 -2 -2 -2 -2 -2 -2 -2 -2 -2 -2 -2 -2 -2 -2 -2 -2 -2 -2 -2 -2 -2 -2
-4 -4 -4 -4 -4 -4 -4 -4 -3 -3 -3 -4 -3 -3 -3 -3 -3 -3 -3 -3 -3 -2 -2 -2 -2 -2 -2 -2 -2 -2 -2 -2 -2 -2 -2 -2 -2 -2 -2 -2 -2 -2 -2
-4 -4 -4 -4 -4 -4 -4 -4 -4 -4 -4 -4 -4 -4 -4 -3 -3 -3 -3 -3 -3 -3 -3 -3 -3 -3 -3 -3 -3 -3 -3 -3 -3 -3 -3 -3 -3 -3 -3 -3 -3 -3 -3
-4 -4 -4 -5 -5 -5 -5 -5 -4 -4 -4 -4 -4 -4 -4 -4 -4 -4 -3 -3 -3 -3 -3 -3 -3 -3 -3 -3 -3 -3 -3 -3 -3 -3 -3 -3 -3 -3 -3 -3 -3 -3 -3
-5 -5 -5 -5 -5 -5 -5 -5 -5 -5 -5 -4 -4 -4 -4 -4 -4 -4 -4 -4 -4 -4 -4 -4 -4 -4 -3 -4 -3 -4 -3 -3 -3 -3 -4 -4 -4 -4 -4 -4 -4 -4 -4
-5 -5 -5 -5 -5 -5 -5 -5 -5 -5 -5 -5 -5 -5 -4 -4 -4 -4 -4 -4 -4 -4 -4 -4 -4 -4 -4 -4 -4 -4 -4 -4 -4 -4 -4 -4 -4 -4 -4 -4 -4 -4 -4
-5 -5 -5 -6 -6 -5 -5 -5 -5 -6 -6 -5 -5 -5 -5 -5 -4 -4 -4 -4 -4 -4 -4 -4 -4 -4 -4 -4 -4 -4 -4 -4 -4 -4 -4 -4 -4 -4 -4 -4 -4 -4 -4
-6 -5 -5 -6 -6 -6 -6 -6 -6 -6 -6 -6 -5 -5 -5 -5 -5 -5 -5 -5 -5 -5 -5 -5 -5 -4 -4 -4 -4 -4 -4 -4 -4 -4 -4 -4 -4 -4 -5 -5 -5 -5 -5
-6 -6 -6 -6 -6 -6 -6 -6 -6 -6 -6 -6 -5 -5 -5 -5 -5 -5 -5 -5 -5 -5 -5 -5 -5 -5 -5 -4 -4 -4 -4 -4 -4 -4 -4 -4 -4 -4 -5 -5 -5 -5 -5
-6 -6 -6 -6 -6 -6 -6 -6 -6 -6 -6 -6 -6 -6 -6 -6 -5 -5 -5 -5 -5 -5 -5 -5 -5 -5 -5 -5 -5 -5 -4 -4 -4 -4 -4 -4 -4 -5 -5 -5 -5 -5 -5
-7 -7 -7 -7 -6 -6 -6 -6 -6 -6 -6 -6 -6 -6 -6 -6 -6 -5 -6 -5 -5 -5 -5 -5 -5 -5 -5 -5 -5 -5 -5 -5 -5 -5 -5 -5 -5 -5 -5 -5 -5 -5 -5
-7 -7 -7 -7 -7 -7 -6 -6 -6 -6 -6 -6 -6 -6 -6 -6 -6 -6 -6 -6 -6 -6 -6 -5 -5 -5 -5 -5 -5 -5 -5 -5 -5 -5 -5 -5 -5 -5 -5 -5 -5 -5 -5
-7 -7 -7 -7 -7 -7 -7 -7 -7 -7 -7 -7 -7 -7 -6 -6 -6 -6 -6 -6 -6 -6 -6 -6 -5 -5 -5 -5 -5 -5 -5 -5 -5 -5 -5 -5 -5 -5 -5 -5 -6 -6 -6
Wind_Speed
4 4 4 4 4 3 3 4 4 3 3 3 4 4 4 4 4 5 5 5 5 5 5 6 6 5 5 5 5 5 5 5 7 5 2 2 3 3 4 6 7 7 8
4 4 3 3 3 3 3 4 3 4 4 3 3 4 4 4 4 5 5 5 6 6 6 6 6 5 6 5 5 6 6 6 6 7 4 2 3 4 4 4 5 6 7
4 3 3 3 3 4 4 4 3 4 3 3 3 4 4 4 4 5 4 5 6 6 7 7 7 6 6 5 6 6 6 5 5 6 4 2 2 2 3 3 3 3 5
3 3 3 3 4 4 4 3 3 3 3 3 4 4 4 4 4 3 4 5 5 5 6 7 7 8 8 7 6 7 6 5 5 5 4 3 3 2 2 2 3 2 3
3 3 4 3 3 3 3 3 3 3 3 3 3 3 3 3 4 4 4 4 4 5 5 6 7 9 10 8 7 6 6 6 5 5 4 4 4 2 3 2 3 2 3
3 4 3 3 2 3 3 3 3 3 3 3 3 3 3 4 6 7 5 4 4 4 5 5 6 7 9 11 11 10 9 8 7 6 6 6 6 5 3 3 3 2 3
3 3 3 3 2 3 3 2 3 3 3 3 3 3 4 5 7 7 7 4 4 4 4 4 5 6 7 6 8 9 9 11 10 8 7 7 6 6 5 4 4 4 4
3 3 3 3 3 3 2 3 3 3 3 3 3 3 4 5 6 6 6 3 3 4 4 5 5 5 6 6 6 5 6 6 8 7 7 7 6 6 5 5 4 3 2
3 3 3 3 3 3 3 4 3 3 3 3 3 3 4 5 6 6 6 3 3 4 4 4 4 5 8 8 6 5 5 4 5 8 8 7 7 7 5 3 3 2 3
4 4 4 3 3 3 4 4 3 3 3 3 3 3 3 4 6 5 5 2 3 3 3 3 5 6 7 7 6 5 6 4 3 3 2 3 3 4 5 4 5 4 3
4 4 4 3 3 3 4 3 2 2 2 2 3 3 3 4 5 6 5 2 2 3 3 3 3 5 6 5 5 4 5 3 3 3 2 1 1 1 2 2 3 4 4
4 3 4 3 3 3 2 2 2 2 2 2 3 3 3 3 4 5 6 5 4 3 3 3 3 5 4 3 3 3 3 2 2 2 2 2 1 1 1 1 1 2 3
3 4 4 4 3 3 2 2 2 2 2 2 3 3 3 2 3 5 6 5 5 3 3 4 4 3 2 1 2 3 2 2 2 2 2 2 1 1 1 1 0 0 1
3 4 4 3 3 3 3 2 2 2 2 3 3 3 3 3 2 2 2 3 3 3 2 2 1 1 1 0 1 0 1 2 2 2 2 1 1 1 1 1 1 0 1
3 4 4 3 3 3 3 2 3 3 4 3 3 3 3 4 4 5 3 2 2 2 1 0 1 1 0 1 1 1 1 1 1 1 1 1 1 1 1 1 1 1 1
3 3 3 3 2 2 3 3 5 4 6 6 6 5 5 6 6 5 5 4 3 2 0 1 1 1 1 1 1 1 1 1 1 1 1 1 1 2 1 1 0 1 1
3 3 3 3 3 3 3 3 4 5 6 6 6 6 5 5 5 5 4 3 2 1 0 1 1 1 1 1 1 1 1 1 1 1 1 1 1 2 2 1 1 1 1
3 4 3 2 3 3 2 2 3 3 4 4 5 6 5 5 5 4 3 1 1 0 1 2 2 1 1 1 1 1 1 1 1 1 1 1 1 1 2 1 2 2 2
3 3 3 2 2 2 2 2 3 3 3 4 4 4 5 4 4 3 2 1 1 1 1 2 2 1 1 1 1 1 1 1 1 1 1 1 1 1 1 2 2 2 2
3 5 4 3 2 2 2 2 3 3 3 4 4 3 3 3 2 2 1 1 1 1 2 2 1 1 2 1 1 1 1 1 1 1 1 1 1 1 1 1 1 2 1
3 4 5 3 2 2 2 2 3 3 3 3 3 4 4 2 2 2 2 2 2 2 2 2 2 2 2 2 2 2 2 2 2 1 1 1 1 1 1 1 1 1 1
3 3 3 2 2 2 2 2 2 2 3 3 3 3 5 2 2 2 2 2 2 1 1 1 2 2 2 2 2 2 2 2 2 2 1 1 1 1 1 1 1 1 1
3 3 3 3 3 4 3 2 2 2 3 3 3 3 3 2 2 2 2 1 1 1 1 1 2 2 2 2 3 3 3 3 3 3 2 2 1 1 1 1 1 1 1
3 3 3 3 3 3 3 3 3 3 3 3 3 3 2 2 2 2 1 1 1 0 1 1 2 2 2 2 3 3 3 3 3 3 3 3 2 1 1 1 1 2 2
3 3 3 3 3 3 3 3 3 3 3 2 2 2 2 2 2 1 1 1 0 0 1 1 1 2 3 3 3 3 3 3 3 3 3 3 2 2 2 2 2 2 2
3 3 3 3 3 3 3 3 3 3 3 2 2 2 2 2 2 1 1 1 0 1 1 1 1 2 2 2 3 3 3 3 3 3 3 3 3 2 2 2 3 2 2
Wind_Direction
299 284 276 275 265 250 247 253 255 257 253 242 238 238 235 231 223 218 218 211 214 219 217 216 224 221 220 216 214 214 215 215 242 258 240 234 234 248 270 264 260 255 257
292 281 276 277 273 264 262 264 263 258 256 253 243 237 241 242 235 223 221 220 220 223 224 223 228 226 226 219 214 218 221 218 230 253 256 239 242 239 249 259 270 263 257
298 284 281 282 277 272 271 270 269 265 264 262 249 243 242 242 244 229 218 225 229 229 226 224 225 220 233 228 219 221 222 224 224 236 251 254 259 254 256 265 268 271 270
299 286 274 269 267 270 273 269 267 266 261 257 252 249 243 239 239 230 229 230 230 237 232 227 225 221 227 225 227 223 217 218 220 228 243 254 258 255 232 254 277 267 275
305 295 281 272 267 273 275 276 276 270 269 262 258 260 252 239 239 229 228 235 235 240 240 234 233 233 233 232 230 220 213 219 219 227 239 249 244 237 236 231 254 275 278
302 298 298 293 278 271 274 276 282 281 279 267 260 257 258 259 260 257 253 237 238 240 247 249 245 242 239 240 239 231 222 221 219 224 236 238 242 235 228 227 242 264 274
309 305 303 293 277 271 275 280 277 274 275 269 263 261 262 264 263 262 265 251 235 240 244 248 253 246 240 231 236 237 234 233 230 228 232 237 234 226 216 226 240 251 254
308 306 305 295 283 278 272 270 271 272 269 266 270 271 271 270 272 269 271 263 242 242 243 242 243 243 236 225 222 230 236 240 239 236 232 234 230 217 214 219 227 248 277
302 298 299 290 287 286 276 270 270 267 270 269 269 269 269 274 278 275 277 258 251 253 252 251 245 241 238 228 220 225 237 246 249 245 245 236 228 223 211 189 203 228 272
299 295 294 288 279 281 281 274 268 260 266 278 281 273 268 273 283 285 287 260 258 265 267 260 256 249 246 231 220 218 230 233 219 228 228 218 222 218 221 214 205 217 250
299 295 293 290 283 280 284 279 272 276 283 280 284 280 272 278 290 294 294 277 262 264 267 269 263 257 251 240 230 222 225 212 192 189 188 197 214 215 217 222 214 215 227
312 308 308 306 300 299 291 292 286 277 282 282 288 294 288 282 294 298 303 297 284 261 263 268 262 261 244 236 241 226 219 202 160 170 186 211 220 233 231 217 232 241 239
330 323 320 318 307 302 294 288 284 268 261 274 277 281 293 293 294 302 305 303 299 286 269 269 271 270 255 241 217 215 209 164 161 185 204 224 229 217 183 137 61 350 304
322 319 320 324 323 321 313 300 285 272 267 268 270 279 284 289 291 291 287 290 295 294 288 285 307 351 334 178 194 176 134 161 174 183 195 208 183 189 211 204 211 210 327
323 318 322 324 320 325 321 304 290 278 268 266 266 266 273 277 284 289 283 277 268 257 270 338 19 16 52 80 110 117 121 128 128 140 152 169 194 199 231 215 207 230 228
321 319 319 319 316 315 320 327 326 312 312 303 290 281 282 282 289 291 292 288 287 263 309 245 237 206 210 207 186 151 126 138 148 146 148 161 206 205 213 222 214 222 229
311 312 313 315 314 313 315 321 325 333 332 325 313 304 295 294 296 299 297 286 280 270 206 243 243 224 227 209 186 181 205 159 150 154 168 189 211 209 192 205 217 220 256
316 310 308 301 300 302 304 303 305 312 320 322 323 319 316 310 306 308 298 300 307 352 208 240 241 219 209 207 205 197 185 148 157 176 182 202 223 222 206 209 214 217 240
319 314 308 302 296 294 297 303 304 303 303 307 312 319 325 322 319 319 318 295 245 258 258 247 227 207 207 206 210 202 188 193 201 201 220 230 235 241 234 221 221 235 243
313 310 310 306 304 301 298 298 298 299 300 301 303 306 318 325 320 316 318 294 250 248 249 238 216 196 198 197 205 207 198 199 203 221 239 245 245 237 234 237 222 213 213
315 317 317 317 308 301 299 295 291 290 293 294 294 301 307 308 295 293 293 278 254 250 241 221 206 198 197 194 199 205 207 210 215 219 228 236 238 244 242 225 203 177 162
317 317 318 309 304 305 304 300 297 297 301 300 306 314 319 317 295 285 278 273 266 255 237 214 213 212 202 197 200 207 215 215 214 211 210 222 228 238 226 179 161 150 147
320 321 325 324 315 309 314 312 308 306 304 304 306 311 315 309 303 298 294 293 290 270 231 208 215 218 207 209 212 207 210 214 212 202 198 205 218 214 177 162 161 153 150
321 320 321 323 324 320 313 307 304 300 298 300 302 303 305 306 309 308 303 304 304 297 245 214 201 203 210 223 231 225 222 215 200 193 186 187 198 197 168 154 151 155 161
325 324 323 321 320 319 318 316 314 309 305 304 308 316 321 321 319 314 309 304 294 296 270 239 221 211 212 224 233 221 209 203 199 185 178 177 175 171 162 158 151 140 142
329 325 322 320 318 318 317 316 315 315 313 309 309 313 318 323 321 313 310 308 304 294 281 263 247 235 230 231 224 208 198 195 186 176 166 164 162 163 159 153 149 143 135
Height
1441 1441 1440 1441 1441 1442 1442 1442 1443 1444 1446 1447 1448 1449 1450 1451 1452 1454 1455 1456 1457 1459 1460 1462 1464 1466 1468 1469 1471 1471 1472 1472 1471 1470 1473 1473 1474 1474 1474 1474 1474 1473 1472
1437 1437 1436 1436 1437 1437 1437 1438 1439 1440 1441 1442 1443 1444 1445 1446 1448 1449 1450 1451 1452 1453 1455 1457 1458 1460 1462 1463 1464 1465 1466 1467 1467 1466 1466 1467 1468 1468 1468 1468 1468 1468 1467
1433 1433 1432 1432 1432 1433 1433 1434 1434 1435 1436 1437 1438 1439 1440 1441 1442 1443 1444 1445 1447 1448 1449 1451 1452 1454 1455 1457 1458 1459 1459 1461 1462 1461 1461 1462 1462 1463 1463 1463 1462 1462 1461
1429 1429 1428 1428 1429 1429 1430 1430 1430 1431 1431 1432 1433 1434 1435 1436 1437 1438 1439 1441 1442 1443 1444 1445 1446 1447 1449 1450 1451 1452 1454 1455 1456 1456 1456 1456 1456 1457 1457 1457 1456 1455 1455
1426 1425 1425 1425 1425 1426 1426 1426 1426 1427 1427 1428 1429 1430 1430 1431 1432 1433 1434 1435 1437 1437 1438 1439 1440 1441 1442 1444 1445 1446 1448 1449 1450 1450 1450 1450 1450 1451 1451 1451 1450 1450 1449
1423 1422 1422 1422 1422 1422 1422 1422 1422 1423 1423 1424 1424 1425 1426 1427 1428 1429 1430 1430 1431 1432 1432 1433 1434 1435 1436 1437 1439 1440 1442 1443 1444 1444 1445 1445 1445 1445 1446 1446 1446 1444 1443
1420 1420 1419 1419 1419 1419 1419 1418 1418 1419 1419 1419 1420 1421 1421 1423 1424 1425 1425 1426 1426 1427 1427 1427 1428 1429 1430 1431 1432 1434 1435 1437 1438 1439 1439 1439 1440 1440 1440 1441 1440 1440 1439
1418 1417 1417 1416 1416 1415 1415 1415 1415 1415 1415 1415 1416 1417 1418 1419 1420 1420 1421 1421 1421 1422 1422 1422 1422 1423 1424 1426 1427 1428 1429 1430 1431 1433 1434 1434 1435 1436 1436 1436 1436 1435 1434
1416 1415 1414 1413 1412 1412 1412 1411 1412 1412 1412 1412 1413 1413 1413 1414 1415 1416 1417 1416 1416 1417 1417 1417 1417 1418 1419 1421 1422 1422 1423 1424 1425 1427 1428 1429 1429 1430 1431 1431 1431 1430 1429
1413 1412 1411 1410 1410 1409 1408 1408 1408 1408 1408 1408 1408 1409 1409 1409 1411 1412 1412 1412 1412 1412 1412 1412 1413 1413 1414 1415 1416 1417 1417 1418 1420 1421 1422 1423 1424 1425 1426 1426 1426 1425 1424
1410 1409 1408 1408 1407 1406 1405 1405 1404 1404 1404 1404 1405 1405 1405 1406 1407 1407 1408 1408 1408 1407 1407 1408 1408 1409 1409 1410 1412 1412 1413 1414 1415 1415 1416 1417 1418 1419 1420 1420 1421 1421 1420
1408 1407 1406 1405 1404 1403 1402 1402 1401 1401 1401 1401 1400 1401 1401 1402 1403 1403 1404 1404 1404 1404 1403 1404 1404 1405 1405 1406 1407 1408 1409 1410 1410 1410 1411 1412 1413 1414 1415 1415 1416 1416 1416
1405 1404 1403 1403 1402 1401 1400 1399 1398 1398 1398 1397 1397 1397 1398 1398 1399 1400 1400 1400 1400 1400 1400 1400 1401 1401 1401 1402 1403 1404 1405 1405 1406 1406 1406 1407 1408 1409 1410 1410 1411 1411 1412
1404 1402 1401 1400 1399 1398 1397 1396 1396 1395 1395 1395 1395 1395 1395 1395 1395 1396 1396 1396 1396 1396 1397 1397 1397 1398 1398 1399 1400 1400 1401 1402 1402 1402 1402 1403 1404 1405 1405 1406 1406 1406 1406
1402 1400 1399 1398 1397 1396 1395 1395 1394 1394 1393 1393 1393 1393 1392 1392 1393 1394 1393 1393 1394 1394 1394 1394 1394 1395 1395 1396 1396 1397 1398 1398 1399 1399 1399 1399 1400 1401 1402 1402 1403 1403 1403
1400 1399 1398 1397 1396 1395 1394 1393 1392 1392 1392 1391 1391 1391 1390 1390 1391 1391 1391 1391 1391 1391 1391 1391 1391 1392 1393 1393 1394 1394 1395 1395 1396 1396 1396 1397 1397 1398 1398 1399 1400 1400 1399
1399 1397 1396 1395 1394 1393 1392 1391 1390 1390 1390 1389 1389 1389 1388 1388 1388 1388 1388 1388 1388 1389 1389 1389 1389 1389 1390 1391 1391 1392 1392 1393 1394 1394 1394 1395 1395 1395 1395 1396 1396 1397 1396
1397 1396 1395 1394 1393 1392 1391 1390 1390 1388 1387 1387 1387 1386 1386 1386 1386 1386 1386 1386 1385 1385 1386 1386 1386 1387 1388 1389 1389 1390 1390 1391 1392 1392 1393 1393 1393 1393 1393 1393 1394 1394 1394
1396 1394 1393 1392 1391 1390 1390 1389 1388 1387 1386 1385 1384 1384 1384 1384 1384 1384 1383 1383 1382 1383 1383 1384 1384 1385 1386 1387 1387 1388 1389 1389 1390 1390 1391 1391 1391 1391 1390 1391 1391 1392 1392
1394 1393 1391 1390 1389 1389 1388 1387 1387 1386 1385 1384 1383 1382 1382 1381 1381 1381 1381 1381 1381 1381 1381 1382 1382 1383 1384 1385 1385 1386 1387 1388 1388 1389 1389 1390 1390 1390 1389 1389 1389 1389 1390
1392 1391 1390 1388 1388 1387 1386 1386 1385 1384 1383 1382 1382 1381 1381 1380 1379 1379 1379 1379 1379 1379 1379 1380 1380 1381 1382 1383 1384 1384 1385 1386 1387 1387 1388 1388 1388 1388 1388 1388 1388 1388 1388
1391 1389 1388 1387 1386 1385 1384 1384 1383 1382 1381 1380 1380 1379 1379 1378 1377 1377 1377 1377 1377 1377 1378 1378 1378 1379 1380 1381 1382 1383 1383 1384 1385 1386 1386 1386 1386 1387 1387 1387 1387 1387 1387
1390 1388 1387 1386 1385 1384 1383 1382 1381 1380 1379 1378 1378 1377 1376 1376 1375 1375 1375 1375 1375 1375 1376 1376 1377 1377 1378 1379 1380 1381 1382 1382 1383 1384 1384 1384 1385 1385 1386 1386 1386 1386 1386
1389 1387 1386 1385 1383 1382 1381 1380 1379 1378 1377 1376 1376 1375 1374 1374 1374 1374 1374 1374 1374 1374 1374 1375 1375 1376 1376 1377 1379 1380 1380 1381 1382 1382 1383 1383 1384 1384 1384 1385 1385 1385 1386
1388 1387 1385 1384 1382 1381 1380 1379 1378 1377 1376 1375 1374 1373 1373 1373 1372 1372 1373 1373 1373 1373 1373 1373 1374 1374 1375 1376 1377 1378 1379 1380 1380 1381 1381 1382 1382 1383 1384 1384 1384 1385 1385
1387 1385 1384 1382 1381 1380 1379 1377 1376 1375 1374 1374 1373 1372 1372 1371 1371 1371 1371 1371 1371 1371 1371 1372 1372 1373 1373 1374 1375 1376 1377 1378 1379 1379 1380 1381 1381 1382 1383 1383 1384 1384 1385